Bellaire, MI

3:56 PM EDT on April 29, 2017 (GMT -0400)
Antrim County

Weather History for KACB - April, 2014

Change the Weather History Date:

Sunday, April 27, 2014

  Actual Average (KCVX) Record (KCVX)
Temperature  
Mean Temperature 40 °F -  
Max Temperature 55 °F 55 °F 71 °F (2003)
Min Temperature 26 °F 38 °F 28 °F (2004)
Degree Days  
Heating Degree Days 24    
Moisture  
Dew Point 24 °F    
Average Humidity 56    
Maximum Humidity 94    
Minimum Humidity 31    
Precipitation  
Precipitation 0.00 in - - ()
Sea Level Pressure  
Sea Level Pressure 30.17 in    
Wind  
Wind Speed 4 mph (East)    
Max Wind Speed 16 mph    
Max Gust Speed 23 mph    
Visibility 10 miles    
Events      
Averages and records for this station are not official NWS values.
T = Trace of Precipitation, MM = Missing Value Source: NWS Daily Summary

Daily Weather History Graph

Daily Weather History Graph

Search for Another Location

Airport or City:

Trip Planner

Search our weather history database for the weather conditions in past years. The results will help you decide how hot, cold, wet, or windy it might be!

Date:

Astronomy

Apr. 27, 2014 Rise Set
Actual Time 6:36 AM EDT 8:41 PM EDT
Civil Twilight 6:04 AM EDT 9:13 PM EDT
Nautical Twilight 5:25 AM EDT 9:52 PM EDT
Astronomical Twilight 4:41 AM EDT 10:36 PM EDT
Moon 5:41 AM EDT (4/27) 7:10 PM EDT (4/27)
Length of Visible Light 15h 09m
Length of Day
14h 05m
Waning Crescent, 3% of the Moon is Illuminated
Apr 27
Waning Crescent
Apr 29
New
May 6
First Quarter
May 14
Full
May 21
Last Quarter

Hourly Weather History & Observations

Time (EDT) Temp. Windchill Dew Point Humidity Pressure Visibility Wind Dir Wind Speed Gust Speed Precip Events Conditions
12:13 AM 30.7 °F - 27.0 °F 86% 30.15 in 10.0 mi Calm Calm - N/A   Scattered Clouds
12:34 AM 30.6 °F - 27.0 °F 86% 30.16 in 10.0 mi Calm Calm - N/A   Mostly Cloudy
12:54 AM 29.5 °F - 26.6 °F 89% 30.18 in 10.0 mi Calm Calm - N/A   Scattered Clouds
1:13 AM 29.1 °F - 26.6 °F 90% 30.17 in 10.0 mi Calm Calm - N/A   Clear
1:34 AM 29.3 °F - 27.0 °F 91% 30.17 in 10.0 mi Calm Calm - N/A   Clear
1:54 AM 28.4 °F - 26.2 °F 92% 30.18 in 10.0 mi Calm Calm - N/A   Clear
2:13 AM 28.4 °F - 26.4 °F 92% 30.19 in 10.0 mi Calm Calm - N/A   Clear
2:34 AM 28.6 °F - 26.6 °F 92% 30.19 in 10.0 mi Calm Calm - N/A   Clear
2:53 AM 28.9 °F - 27.0 °F 92% 30.18 in 10.0 mi Calm Calm - N/A   Clear
3:14 AM 28.9 °F - 27.1 °F 93% 30.18 in 10.0 mi Calm Calm - N/A   Clear
3:34 AM 28.2 °F - 26.6 °F 94% 30.19 in 10.0 mi Calm Calm - N/A   Clear
3:53 AM 28.4 °F - 27.0 °F 94% 30.18 in 10.0 mi Calm Calm - N/A   Clear
4:14 AM 28.4 °F - 26.6 °F 93% 30.19 in 10.0 mi Calm Calm - N/A   Clear
4:34 AM 27.3 °F - 25.7 °F 94% 30.19 in 10.0 mi Calm Calm - N/A   Clear
4:53 AM 28.0 °F - 26.6 °F 94% 30.18 in 10.0 mi Calm Calm - N/A   Clear
5:14 AM 28.0 °F - 26.6 °F 94% 30.20 in 10.0 mi Calm Calm - N/A   Clear
5:34 AM 28.4 °F - 27.0 °F 94% 30.19 in 10.0 mi Calm Calm - N/A   Clear
5:53 AM 28.0 °F - 26.4 °F 94% 30.19 in 10.0 mi Calm Calm - N/A   Clear
6:14 AM 28.2 °F - 26.6 °F 94% 30.19 in 10.0 mi Calm Calm - N/A   Clear
6:34 AM 27.3 °F - 25.7 °F 94% 30.19 in 10.0 mi Calm Calm - N/A   Clear
6:53 AM 26.6 °F - 25.2 °F 94% 30.20 in 10.0 mi Calm Calm - N/A   Clear
7:14 AM 27.1 °F - 25.7 °F 94% 30.20 in 10.0 mi Calm Calm - N/A   Clear
7:34 AM 29.3 °F - 27.9 °F 94% 30.21 in 10.0 mi Calm Calm - N/A   Clear
7:53 AM 31.6 °F - 29.8 °F 93% 30.22 in 10.0 mi Calm Calm - N/A   Clear
8:14 AM 34.2 °F - 31.3 °F 89% 30.23 in 10.0 mi Calm Calm - N/A   Clear
8:34 AM 37.2 °F - 26.4 °F 65% 30.23 in 10.0 mi Calm Calm - N/A   Clear
8:53 AM 39.0 °F 34.0 °F 25.3 °F 58% 30.22 in 10.0 mi ENE 6.9 mph - N/A   Clear
9:14 AM 40.1 °F 35.3 °F 24.4 °F 54% 30.21 in 10.0 mi East 6.9 mph - N/A   Clear
9:34 AM 41.9 °F 36.9 °F 24.6 °F 50% 30.21 in 10.0 mi East 8.1 mph - N/A   Clear
9:54 AM 42.8 °F 38.0 °F 24.1 °F 48% 30.20 in 10.0 mi East 8.1 mph - N/A   Clear
10:14 AM 43.9 °F 38.3 °F 24.6 °F 47% 30.20 in 10.0 mi ENE 10.4 mph - N/A   Clear
10:34 AM 44.6 °F 40.7 °F 24.4 °F 45% 30.20 in 10.0 mi ENE 6.9 mph - N/A   Clear
10:54 AM 45.7 °F 41.0 °F 23.7 °F 42% 30.20 in 10.0 mi ENE 9.2 mph - N/A   Clear
11:14 AM 45.7 °F 41.5 °F 23.5 °F 42% 30.20 in 10.0 mi East 8.1 mph - N/A   Clear
11:34 AM 47.8 °F - 24.3 °F 40% 30.19 in 10.0 mi ENE 9.2 mph - N/A   Clear
11:54 AM 48.2 °F - 24.3 °F 39% 30.19 in 10.0 mi ENE 8.1 mph 17.3 mph N/A   Clear
12:14 PM 48.7 °F - 24.4 °F 39% 30.18 in 10.0 mi ENE 9.2 mph 17.3 mph N/A   Clear
12:33 PM 49.5 °F - 24.1 °F 37% 30.17 in 10.0 mi ENE 15.0 mph 18.4 mph N/A   Clear
12:54 PM 50.2 °F - 24.1 °F 36% 30.17 in 10.0 mi East 8.1 mph 17.3 mph N/A   Clear
1:14 PM 51.3 °F - 24.6 °F 35% 30.16 in 10.0 mi East 10.4 mph 19.6 mph N/A   Clear
1:33 PM 52.9 °F - 25.3 °F 34% 30.15 in 10.0 mi East 10.4 mph 16.1 mph N/A   Clear
1:54 PM 52.7 °F - 25.2 °F 34% 30.15 in 10.0 mi ENE 11.5 mph 21.9 mph N/A   Clear
2:14 PM 52.9 °F - 24.6 °F 33% 30.15 in 10.0 mi ESE 12.7 mph 17.3 mph N/A   Clear
2:34 PM 54.1 °F - 24.6 °F 32% 30.14 in 10.0 mi ESE 15.0 mph 21.9 mph N/A   Clear
2:54 PM 54.3 °F - 24.3 °F 31% 30.13 in 10.0 mi East 12.7 mph 20.7 mph N/A   Clear
3:14 PM 54.7 °F - 24.4 °F 31% 30.13 in 10.0 mi East 9.2 mph 21.9 mph N/A   Clear
3:34 PM 55.0 °F - 24.4 °F 31% 30.12 in 10.0 mi ESE 15.0 mph 20.7 mph N/A   Clear
4:14 PM 55.0 °F - 25.0 °F 31% 30.11 in 10.0 mi East 9.2 mph 18.4 mph N/A   Clear
4:34 PM 54.7 °F - 24.8 °F 32% 30.11 in 10.0 mi East 11.5 mph 23.0 mph N/A   Clear
4:54 PM 54.5 °F - 25.5 °F 33% 30.10 in 10.0 mi East 6.9 mph - N/A   Clear
5:14 PM 53.2 °F - 25.0 °F 33% 30.11 in 10.0 mi East 10.4 mph 21.9 mph N/A   Clear
5:34 PM 53.2 °F - 25.2 °F 34% 30.12 in 10.0 mi ENE 9.2 mph 16.1 mph N/A   Clear
5:54 PM 53.1 °F - 24.8 °F 33% 30.11 in 10.0 mi East 11.5 mph 20.7 mph N/A   Clear
6:14 PM 53.6 °F - 24.8 °F 33% 30.11 in 10.0 mi East 8.1 mph 17.3 mph N/A   Clear
6:34 PM 52.5 °F - 24.6 °F 34% 30.11 in 10.0 mi East 8.1 mph 21.9 mph N/A   Clear
6:54 PM 52.0 °F - 25.2 °F 35% 30.12 in 10.0 mi ENE 11.5 mph 17.3 mph N/A   Clear
7:14 PM 51.8 °F - 24.1 °F 34% 30.13 in 10.0 mi ESE 9.2 mph - N/A   Clear
7:34 PM 50.9 °F - 23.7 °F 35% 30.14 in 10.0 mi SE 16.1 mph 20.7 mph N/A   Clear
7:54 PM 49.3 °F - 21.9 °F 34% 30.15 in 10.0 mi East 11.5 mph 21.9 mph N/A   Clear
8:14 PM 48.6 °F - 20.8 °F 34% 30.17 in 10.0 mi ESE 15.0 mph 19.6 mph N/A   Scattered Clouds
8:34 PM 48.2 °F - 20.1 °F 33% 30.18 in 10.0 mi ESE 13.8 mph 21.9 mph N/A   Mostly Cloudy
8:54 PM 47.5 °F - 19.8 °F 33% 30.18 in 10.0 mi East 9.2 mph - N/A   Overcast
9:14 PM 47.1 °F - 20.1 °F 34% 30.18 in 10.0 mi East 5.8 mph - N/A   Overcast
9:34 PM 46.6 °F - 19.4 °F 34% 30.18 in 10.0 mi East 6.9 mph 17.3 mph N/A   Overcast
9:54 PM 46.4 °F 43.5 °F 18.9 °F 33% 30.17 in 10.0 mi East 5.8 mph - N/A   Overcast
10:14 PM 46.2 °F 40.8 °F 17.2 °F 31% 30.16 in 10.0 mi ENE 11.5 mph 17.3 mph N/A   Overcast
10:34 PM 46.0 °F 42.5 °F 17.1 °F 31% 30.16 in 10.0 mi ENE 6.9 mph - N/A   Overcast
10:55 PM 45.9 °F 41.2 °F 17.4 °F 32% 30.15 in 10.0 mi ENE 9.2 mph - N/A   Overcast
11:14 PM 45.9 °F 42.9 °F 18.1 °F 33% 30.15 in 10.0 mi ENE 5.8 mph - N/A   Overcast
11:34 PM 46.0 °F 44.8 °F 18.3 °F 33% 30.15 in 10.0 mi East 3.5 mph - N/A   Overcast
11:53 PM 46.4 °F 41.1 °F 18.5 °F 33% 30.15 in 10.0 mi East 11.5 mph 19.6 mph N/A   Overcast